QPF
0.00 0.01 0.01 0.01 0.01 0.00 0.00 0.00 0.01 0.02 0.04 0.03 0.03 0.03 0.04 0.04 0.04 0.05 0.05 0.03 0.02 0.03 0.03 0.03 0.04 0.04 0.05 0.06 0.06 0.06 0.05 0.04 0.04 0.03 0.01 0.01 0.02 0.02 0.01 0.01 0.01 0.01 0.01
0.00 0.01 0.02 0.03 0.02 0.01 0.00 0.00 0.00 0.01 0.01 0.02 0.03 0.03 0.04 0.05 0.06 0.06 0.07 0.06 0.04 0.02 0.02 0.02 0.02 0.02 0.02 0.04 0.06 0.06 0.05 0.04 0.04 0.04 0.03 0.02 0.02 0.02 0.02 0.01 0.01 0.01 0.01
0.01 0.01 0.01 0.01 0.02 0.02 0.01 0.01 0.01 0.01 0.01 0.01 0.02 0.03 0.04 0.04 0.04 0.06 0.07 0.07 0.06 0.04 0.03 0.02 0.01 0.01 0.01 0.01 0.03 0.04 0.04 0.05 0.05 0.04 0.03 0.02 0.02 0.01 0.01 0.01 0.01 0.01 0.01
0.00 0.00 0.01 0.01 0.02 0.02 0.01 0.01 0.00 0.00 0.00 0.01 0.01 0.01 0.02 0.03 0.03 0.03 0.05 0.05 0.06 0.06 0.05 0.04 0.03 0.02 0.01 0.01 0.02 0.03 0.03 0.05 0.06 0.06 0.03 0.02 0.01 0.01 0.01 0.01 0.01 0.01 0.01
0.00 0.00 0.00 0.01 0.01 0.01 0.01 0.01 0.01 0.00 0.00 0.00 0.01 0.01 0.01 0.02 0.02 0.02 0.03 0.05 0.06 0.06 0.05 0.04 0.04 0.04 0.04 0.03 0.03 0.03 0.04 0.05 0.07 0.07 0.04 0.02 0.02 0.01 0.01 0.01 0.01 0.01 0.01
0.00 0.00 0.00 0.00 0.00 0.01 0.01 0.02 0.02 0.02 0.01 0.00 0.00 0.01 0.01 0.01 0.03 0.03 0.03 0.03 0.04 0.05 0.05 0.05 0.05 0.05 0.05 0.04 0.03 0.03 0.03 0.04 0.05 0.06 0.06 0.04 0.03 0.01 0.01 0.01 0.01 0.01 0.01
0.00 0.00 0.00 0.00 0.00 0.01 0.01 0.00 0.01 0.02 0.03 0.02 0.01 0.01 0.01 0.01 0.02 0.02 0.03 0.02 0.02 0.04 0.05 0.05 0.05 0.05 0.05 0.05 0.04 0.03 0.02 0.02 0.03 0.04 0.05 0.04 0.04 0.03 0.02 0.01 0.01 0.01 0.01
0.00 0.01 0.00 0.00 0.00 0.00 0.01 0.01 0.01 0.01 0.01 0.01 0.01 0.01 0.01 0.02 0.02 0.02 0.01 0.01 0.01 0.02 0.03 0.05 0.06 0.06 0.06 0.06 0.05 0.04 0.02 0.01 0.01 0.02 0.03 0.04 0.04 0.04 0.03 0.02 0.01 0.01 0.01
0.00 0.00 0.00 0.00 0.00 0.00 0.01 0.02 0.01 0.01 0.01 0.01 0.01 0.01 0.01 0.02 0.02 0.02 0.02 0.01 0.01 0.01 0.01 0.02 0.04 0.04 0.06 0.07 0.06 0.05 0.04 0.02 0.01 0.02 0.02 0.04 0.04 0.04 0.04 0.02 0.02 0.02 0.01
0.00 0.00 0.00 0.00 0.00 0.00 0.00 0.01 0.01 0.00 0.00 0.00 0.00 0.00 0.00 0.01 0.02 0.02 0.02 0.02 0.01 0.01 0.01 0.02 0.04 0.04 0.06 0.07 0.05 0.05 0.04 0.04 0.03 0.02 0.02 0.03 0.03 0.03 0.03 0.02 0.02 0.02 0.02
0.00 0.00 0.00 0.00 0.00 0.00 0.00 0.00 0.00 0.00 0.00 0.00 0.00 0.01 0.01 0.01 0.02 0.02 0.02 0.02 0.02 0.03 0.03 0.02 0.02 0.03 0.04 0.05 0.05 0.04 0.04 0.05 0.06 0.05 0.03 0.02 0.02 0.03 0.03 0.02 0.02 0.02 0.02
0.00 0.00 0.00 0.00 0.00 0.00 0.00 0.01 0.01 0.01 0.01 0.00 0.01 0.01 0.01 0.02 0.03 0.03 0.03 0.03 0.03 0.03 0.03 0.02 0.02 0.02 0.03 0.04 0.04 0.04 0.06 0.06 0.06 0.06 0.05 0.04 0.04 0.04 0.04 0.03 0.03 0.02 0.02
0.00 0.00 0.00 0.00 0.00 0.00 0.01 0.01 0.01 0.01 0.01 0.02 0.02 0.02 0.02 0.02 0.02 0.02 0.02 0.02 0.03 0.03 0.03 0.02 0.02 0.02 0.02 0.02 0.03 0.03 0.03 0.04 0.05 0.06 0.07 0.06 0.05 0.05 0.05 0.06 0.05 0.04 0.03
0.00 0.00 0.00 0.00 0.00 0.01 0.01 0.01 0.02 0.02 0.02 0.01 0.01 0.02 0.02 0.02 0.02 0.02 0.02 0.03 0.03 0.03 0.03 0.03 0.02 0.01 0.01 0.01 0.01 0.02 0.02 0.02 0.03 0.04 0.05 0.06 0.06 0.06 0.06 0.05 0.05 0.05 0.05
0.00 0.00 0.00 0.00 0.01 0.01 0.01 0.02 0.01 0.01 0.02 0.02 0.02 0.02 0.02 0.02 0.02 0.03 0.03 0.03 0.04 0.05 0.05 0.04 0.02 0.02 0.02 0.02 0.02 0.02 0.02 0.02 0.02 0.03 0.03 0.04 0.05 0.05 0.06 0.05 0.05 0.05 0.05
0.01 0.01 0.01 0.01 0.01 0.01 0.01 0.01 0.01 0.01 0.01 0.01 0.01 0.02 0.02 0.02 0.02 0.02 0.02 0.02 0.03 0.04 0.04 0.03 0.03 0.02 0.03 0.03 0.02 0.02 0.02 0.02 0.03 0.03 0.04 0.04 0.04 0.04 0.04 0.05 0.05 0.05 0.04
0.02 0.02 0.01 0.01 0.01 0.02 0.01 0.01 0.01 0.01 0.02 0.02 0.02 0.03 0.03 0.03 0.03 0.03 0.03 0.03 0.04 0.04 0.03 0.03 0.04 0.04 0.04 0.04 0.03 0.03 0.03 0.03 0.03 0.03 0.04 0.04 0.04 0.05 0.05 0.06 0.06 0.06 0.06
0.03 0.02 0.02 0.02 0.02 0.02 0.02 0.02 0.02 0.01 0.01 0.01 0.01 0.02 0.02 0.03 0.03 0.03 0.03 0.03 0.03 0.03 0.03 0.04 0.05 0.05 0.05 0.05 0.04 0.04 0.04 0.04 0.04 0.04 0.04 0.04 0.05 0.05 0.06 0.06 0.06 0.06 0.06
0.02 0.02 0.03 0.03 0.03 0.02 0.02 0.02 0.02 0.01 0.01 0.01 0.01 0.01 0.01 0.01 0.01 0.01 0.01 0.01 0.01 0.02 0.02 0.03 0.04 0.04 0.04 0.04 0.04 0.04 0.04 0.05 0.05 0.05 0.05 0.05 0.06 0.07 0.07 0.07 0.07 0.07 0.06
0.01 0.02 0.02 0.02 0.02 0.02 0.02 0.01 0.01 0.01 0.01 0.01 0.01 0.02 0.02 0.01 0.01 0.01 0.01 0.01 0.01 0.01 0.02 0.02 0.03 0.03 0.04 0.03 0.03 0.03 0.04 0.04 0.04 0.05 0.05 0.05 0.05 0.06 0.06 0.06 0.06 0.06 0.06
0.01 0.01 0.01 0.01 0.01 0.02 0.02 0.02 0.01 0.01 0.02 0.02 0.02 0.02 0.02 0.02 0.01 0.01 0.01 0.01 0.01 0.01 0.01 0.02 0.02 0.03 0.03 0.03 0.03 0.03 0.02 0.02 0.03 0.04 0.04 0.04 0.05 0.05 0.05 0.05 0.05 0.05 0.05
0.01 0.01 0.01 0.01 0.01 0.01 0.01 0.01 0.01 0.01 0.01 0.01 0.01 0.01 0.01 0.01 0.01 0.01 0.01 0.01 0.01 0.01 0.01 0.01 0.02 0.02 0.02 0.02 0.02 0.03 0.02 0.02 0.02 0.03 0.04 0.04 0.04 0.05 0.05 0.05 0.05 0.05 0.04
0.01 0.01 0.01 0.01 0.01 0.01 0.01 0.01 0.01 0.01 0.01 0.01 0.01 0.01 0.01 0.01 0.01 0.01 0.01 0.01 0.01 0.01 0.01 0.01 0.02 0.02 0.02 0.01 0.01 0.02 0.02 0.02 0.02 0.02 0.02 0.03 0.03 0.04 0.05 0.05 0.06 0.06 0.05
0.01 0.01 0.01 0.01 0.01 0.01 0.01 0.01 0.01 0.01 0.01 0.01 0.01 0.01 0.01 0.01 0.01 0.01 0.01 0.01 0.01 0.01 0.01 0.02 0.02 0.02 0.02 0.02 0.01 0.01 0.01 0.01 0.02 0.03 0.03 0.02 0.03 0.03 0.03 0.04 0.04 0.05 0.05
0.01 0.01 0.01 0.01 0.01 0.01 0.01 0.01 0.01 0.01 0.01 0.01 0.01 0.01 0.01 0.01 0.01 0.01 0.01 0.01 0.01 0.01 0.01 0.02 0.02 0.02 0.02 0.01 0.01 0.01 0.02 0.02 0.02 0.03 0.03 0.03 0.03 0.02 0.02 0.03 0.03 0.04 0.04
0.01 0.01 0.01 0.01 0.01 0.01 0.01 0.01 0.01 0.01 0.01 0.01 0.01 0.01 0.01 0.01 0.01 0.01 0.01 0.01 0.01 0.01 0.01 0.01 0.02 0.02 0.02 0.02 0.02 0.02 0.02 0.02 0.02 0.02 0.03 0.03 0.03 0.02 0.02 0.02 0.03 0.03 0.03
MSLP
1006.43 1007.18 1007.92 1008.61 1009.21 1009.71 1010.12 1010.45 1010.74 1011.01 1011.31 1011.65 1012.04 1012.47 1012.92 1013.38 1013.81 1014.22 1014.59 1014.93 1015.26 1015.58 1015.92 1016.29 1016.68 1017.10 1017.53 1017.97 1018.40 1018.82 1019.23 1019.62 1020.00 1020.37 1020.73 1021.08 1021.40 1021.70 1021.97 1022.19 1022.37 1022.50 1022.60
1005.83 1006.59 1007.35 1008.06 1008.68 1009.21 1009.65 1010.01 1010.33 1010.63 1010.94 1011.29 1011.67 1012.08 1012.51 1012.94 1013.35 1013.74 1014.09 1014.43 1014.76 1015.10 1015.46 1015.85 1016.27 1016.71 1017.17 1017.63 1018.08 1018.52 1018.95 1019.36 1019.75 1020.14 1020.53 1020.91 1021.27 1021.62 1021.94 1022.23 1022.48 1022.68 1022.85
1005.24 1006.01 1006.76 1007.48 1008.13 1008.68 1009.15 1009.54 1009.89 1010.22 1010.56 1010.91 1011.30 1011.70 1012.11 1012.51 1012.89 1013.26 1013.60 1013.93 1014.27 1014.62 1015.00 1015.41 1015.86 1016.33 1016.82 1017.31 1017.78 1018.25 1018.69 1019.11 1019.53 1019.93 1020.33 1020.73 1021.13 1021.51 1021.87 1022.20 1022.50 1022.75 1022.96
1004.63 1005.37 1006.11 1006.83 1007.48 1008.06 1008.55 1008.99 1009.38 1009.75 1010.12 1010.51 1010.90 1011.31 1011.71 1012.10 1012.47 1012.82 1013.15 1013.48 1013.82 1014.18 1014.57 1015.01 1015.48 1015.98 1016.49 1017.00 1017.50 1017.98 1018.44 1018.87 1019.29 1019.71 1020.12 1020.53 1020.94 1021.34 1021.72 1022.07 1022.39 1022.68 1022.92
1003.95 1004.65 1005.37 1006.06 1006.72 1007.31 1007.84 1008.32 1008.77 1009.20 1009.62 1010.05 1010.48 1010.90 1011.32 1011.71 1012.08 1012.42 1012.76 1013.08 1013.43 1013.80 1014.21 1014.66 1015.14 1015.65 1016.18 1016.70 1017.21 1017.69 1018.15 1018.59 1019.01 1019.43 1019.84 1020.25 1020.66 1021.06 1021.45 1021.81 1022.14 1022.44 1022.69
1003.22 1003.85 1004.52 1005.19 1005.83 1006.44 1007.01 1007.55 1008.06 1008.56 1009.05 1009.54 1010.02 1010.49 1010.93 1011.34 1011.72 1012.07 1012.41 1012.74 1013.09 1013.46 1013.88 1014.33 1014.82 1015.33 1015.85 1016.37 1016.87 1017.34 1017.80 1018.23 1018.65 1019.06 1019.46 1019.87 1020.27 1020.67 1021.05 1021.41 1021.73 1022.02 1022.28
1002.44 1002.99 1003.60 1004.24 1004.87 1005.50 1006.11 1006.70 1007.29 1007.87 1008.44 1009.00 1009.54 1010.05 1010.53 1010.97 1011.36 1011.73 1012.07 1012.41 1012.76 1013.14 1013.55 1014.00 1014.47 1014.97 1015.47 1015.97 1016.45 1016.91 1017.35 1017.77 1018.17 1018.57 1018.97 1019.37 1019.76 1020.15 1020.52 1020.87 1021.19 1021.47 1021.72
1001.68 1002.14 1002.68 1003.27 1003.90 1004.54 1005.18 1005.84 1006.49 1007.15 1007.80 1008.42 1009.03 1009.59 1010.10 1010.56 1010.97 1011.35 1011.70 1012.04 1012.40 1012.77 1013.17 1013.61 1014.07 1014.55 1015.03 1015.50 1015.96 1016.39 1016.81 1017.21 1017.60 1017.99 1018.38 1018.77 1019.16 1019.55 1019.91 1020.26 1020.57 1020.84 1021.08
1000.98 1001.34 1001.81 1002.36 1002.96 1003.61 1004.29 1004.99 1005.71 1006.43 1007.14 1007.83 1008.48 1009.07 1009.61 1010.09 1010.51 1010.89 1011.25 1011.59 1011.94 1012.32 1012.72 1013.14 1013.59 1014.05 1014.51 1014.96 1015.39 1015.80 1016.20 1016.59 1016.97 1017.35 1017.74 1018.13 1018.52 1018.91 1019.28 1019.62 1019.93 1020.21 1020.45
1000.36 1000.64 1001.03 1001.52 1002.09 1002.74 1003.44 1004.18 1004.94 1005.71 1006.47 1007.19 1007.87 1008.49 1009.04 1009.52 1009.94 1010.33 1010.68 1011.03 1011.39 1011.76 1012.16 1012.59 1013.03 1013.48 1013.93 1014.37 1014.79 1015.19 1015.58 1015.96 1016.33 1016.71 1017.10 1017.50 1017.89 1018.28 1018.66 1019.02 1019.34 1019.63 1019.88
999.86 1000.03 1000.34 1000.76 1001.30 1001.92 1002.62 1003.37 1004.16 1004.95 1005.73 1006.48 1007.17 1007.79 1008.34 1008.82 1009.24 1009.63 1009.99 1010.35 1010.72 1011.11 1011.53 1011.97 1012.43 1012.89 1013.34 1013.78 1014.20 1014.60 1014.99 1015.36 1015.74 1016.12 1016.51 1016.91 1017.31 1017.71 1018.10 1018.47 1018.80 1019.11 1019.38
999.44 999.51 999.72 1000.06 1000.53 1001.11 1001.79 1002.53 1003.31 1004.11 1004.89 1005.64 1006.33 1006.95 1007.50 1007.98 1008.41 1008.81 1009.19 1009.57 1009.97 1010.40 1010.85 1011.33 1011.81 1012.30 1012.77 1013.22 1013.65 1014.06 1014.45 1014.83 1015.20 1015.58 1015.97 1016.36 1016.77 1017.17 1017.57 1017.95 1018.30 1018.62 1018.91
999.11 999.06 999.15 999.39 999.77 1000.28 1000.90 1001.61 1002.36 1003.14 1003.92 1004.65 1005.34 1005.95 1006.51 1007.00 1007.45 1007.88 1008.30 1008.72 1009.17 1009.65 1010.15 1010.67 1011.20 1011.72 1012.22 1012.70 1013.14 1013.56 1013.95 1014.32 1014.69 1015.06 1015.43 1015.82 1016.22 1016.61 1017.01 1017.39 1017.76 1018.10 1018.40
998.83 998.64 998.60 998.72 998.99 999.41 999.96 1000.60 1001.31 1002.06 1002.81 1003.53 1004.21 1004.83 1005.40 1005.92 1006.41 1006.88 1007.35 1007.83 1008.34 1008.88 1009.44 1010.01 1010.58 1011.14 1011.67 1012.16 1012.62 1013.04 1013.43 1013.79 1014.14 1014.49 1014.85 1015.21 1015.59 1015.97 1016.35 1016.73 1017.10 1017.44 1017.76
998.62 998.29 998.11 998.09 998.24 998.54 998.99 999.56 1000.20 1000.90 1001.62 1002.33 1003.00 1003.64 1004.23 1004.79 1005.32 1005.85 1006.38 1006.93 1007.50 1008.09 1008.70 1009.32 1009.92 1010.51 1011.05 1011.56 1012.01 1012.42 1012.80 1013.14 1013.47 1013.79 1014.12 1014.45 1014.80 1015.15 1015.52 1015.88 1016.23 1016.58 1016.90
998.51 998.05 997.73 997.57 997.59 997.77 998.12 998.59 999.16 999.80 1000.47 1001.15 1001.82 1002.46 1003.08 1003.67 1004.25 1004.83 1005.41 1006.01 1006.63 1007.26 1007.90 1008.54 1009.16 1009.74 1010.29 1010.78 1011.22 1011.62 1011.97 1012.29 1012.59 1012.88 1013.18 1013.48 1013.79 1014.12 1014.46 1014.80 1015.14 1015.48 1015.80
998.55 997.98 997.54 997.26 997.16 997.23 997.47 997.84 998.32 998.88 999.49 1000.13 1000.77 1001.41 1002.03 1002.64 1003.25 1003.85 1004.46 1005.08 1005.72 1006.36 1006.99 1007.62 1008.22 1008.78 1009.30 1009.77 1010.18 1010.55 1010.87 1011.17 1011.45 1011.72 1011.99 1012.27 1012.57 1012.88 1013.19 1013.52 1013.85 1014.18 1014.49
998.80 998.16 997.64 997.28 997.08 997.04 997.17 997.43 997.81 998.28 998.81 999.38 999.97 1000.57 1001.16 1001.75 1002.34 1002.93 1003.53 1004.13 1004.74 1005.34 1005.94 1006.52 1007.06 1007.57 1008.04 1008.47 1008.85 1009.19 1009.49 1009.78 1010.05 1010.32 1010.59 1010.87 1011.16 1011.46 1011.78 1012.10 1012.42 1012.75 1013.06
999.29 998.63 998.09 997.67 997.40 997.28 997.31 997.47 997.74 998.09 998.52 998.98 999.48 999.99 1000.51 1001.03 1001.56 1002.09 1002.62 1003.15 1003.69 1004.21 1004.72 1005.21 1005.68 1006.12 1006.52 1006.90 1007.24 1007.56 1007.86 1008.15 1008.43 1008.72 1009.01 1009.32 1009.63 1009.95 1010.28 1010.62 1010.95 1011.28 1011.61
1000.02 999.40 998.87 998.44 998.13 997.96 997.90 997.95 998.09 998.32 998.61 998.94 999.30 999.68 1000.08 1000.49 1000.90 1001.32 1001.74 1002.15 1002.57 1002.97 1003.37 1003.75 1004.11 1004.46 1004.80 1005.12 1005.43 1005.74 1006.05 1006.36 1006.68 1007.01 1007.36 1007.71 1008.07 1008.43 1008.79 1009.15 1009.51 1009.86 1010.21
1000.94 1000.40 999.92 999.51 999.20 998.98 998.84 998.79 998.81 998.89 999.02 999.19 999.39 999.61 999.85 1000.10 1000.36 1000.62 1000.89 1001.15 1001.42 1001.68 1001.94 1002.19 1002.45 1002.70 1002.97 1003.24 1003.53 1003.84 1004.16 1004.52 1004.89 1005.28 1005.69 1006.10 1006.52 1006.94 1007.35 1007.76 1008.15 1008.53 1008.90
1001.96 1001.52 1001.11 1000.75 1000.44 1000.19 1000.00 999.85 999.75 999.68 999.65 999.65 999.67 999.71 999.77 999.84 999.92 1000.01 1000.11 1000.21 1000.31 1000.42 1000.53 1000.66 1000.80 1000.96 1001.16 1001.39 1001.65 1001.96 1002.32 1002.71 1003.14 1003.59 1004.07 1004.55 1005.03 1005.51 1005.97 1006.42 1006.85 1007.26 1007.66
1002.96 1002.61 1002.29 1001.98 1001.69 1001.42 1001.17 1000.94 1000.73 1000.53 1000.35 1000.19 1000.04 999.91 999.79 999.68 999.59 999.51 999.44 999.38 999.32 999.29 999.26 999.27 999.30 999.38 999.50 999.69 999.93 1000.24 1000.61 1001.03 1001.49 1001.99 1002.52 1003.05 1003.58 1004.11 1004.61 1005.10 1005.57 1006.01 1006.44
1003.82 1003.56 1003.30 1003.03 1002.76 1002.48 1002.20 1001.91 1001.61 1001.31 1001.01 1000.71 1000.43 1000.15 999.88 999.63 999.39 999.16 998.95 998.74 998.55 998.38 998.24 998.13 998.07 998.06 998.12 998.25 998.46 998.74 999.10 999.52 999.99 1000.51 1001.05 1001.60 1002.16 1002.70 1003.23 1003.74 1004.24 1004.71 1005.16
1004.48 1004.28 1004.06 1003.82 1003.56 1003.29 1002.98 1002.65 1002.31 1001.94 1001.56 1001.18 1000.80 1000.42 1000.05 999.69 999.35 999.01 998.68 998.36 998.06 997.79 997.54 997.34 997.18 997.09 997.07 997.13 997.28 997.52 997.83 998.21 998.65 999.14 999.66 1000.20 1000.74 1001.28 1001.80 1002.32 1002.82 1003.31 1003.79
1004.91 1004.72 1004.53 1004.31 1004.07 1003.80 1003.50 1003.16 1002.80 1002.41 1002.01 1001.59 1001.16 1000.74 1000.31 999.89 999.48 999.07 998.66 998.27 997.89 997.53 997.20 996.91 996.67 996.49 996.39 996.37 996.44 996.60 996.83 997.14 997.51 997.92 998.38 998.85 999.34 999.84 1000.34 1000.83 1001.32 1001.82 1002.31
Thickness
5692 5689 5686 5684 5681 5679 5676 5674 5672 5671 5670 5668 5667 5665 5663 5662 5661 5659 5658 5657 5656 5655 5655 5653 5652 5652 5650 5649 5648 5647 5646 5643 5637 5637 5639 5639 5638 5636 5634 5633 5632 5631 5629
5688 5685 5682 5679 5676 5673 5671 5669 5668 5666 5665 5663 5662 5660 5658 5657 5655 5654 5652 5652 5651 5649 5649 5648 5647 5647 5645 5644 5642 5641 5640 5640 5636 5631 5632 5632 5632 5631 5630 5628 5627 5626 5625
5684 5680 5677 5674 5671 5668 5666 5665 5664 5661 5660 5658 5656 5654 5652 5652 5651 5650 5648 5647 5646 5645 5644 5643 5642 5641 5639 5638 5637 5635 5634 5634 5632 5628 5626 5627 5626 5626 5624 5623 5622 5621 5621
5680 5676 5672 5670 5667 5664 5662 5660 5658 5656 5654 5652 5650 5648 5647 5646 5645 5644 5643 5642 5641 5641 5640 5639 5638 5637 5635 5633 5631 5629 5628 5626 5625 5623 5620 5619 5619 5620 5618 5615 5614 5614 5615
5675 5670 5668 5665 5662 5659 5656 5654 5652 5650 5648 5646 5644 5642 5641 5640 5638 5637 5636 5636 5636 5635 5635 5634 5632 5632 5631 5629 5627 5624 5622 5620 5618 5615 5613 5611 5610 5610 5610 5610 5608 5608 5608
5669 5665 5662 5659 5656 5653 5650 5648 5645 5643 5641 5639 5637 5635 5634 5633 5632 5631 5630 5629 5629 5629 5628 5627 5627 5626 5625 5624 5622 5620 5618 5615 5611 5609 5607 5605 5605 5605 5605 5605 5602 5600 5599
5664 5660 5657 5653 5649 5646 5644 5641 5638 5636 5634 5632 5630 5628 5627 5626 5625 5624 5623 5622 5622 5622 5622 5621 5621 5620 5619 5617 5615 5614 5612 5610 5609 5606 5603 5602 5601 5601 5600 5598 5597 5596 5596
5658 5654 5650 5647 5643 5640 5637 5634 5632 5630 5627 5625 5624 5622 5620 5620 5619 5618 5617 5616 5616 5616 5615 5615 5613 5612 5612 5610 5608 5606 5605 5605 5604 5602 5601 5600 5600 5599 5597 5595 5593 5592 5592
5650 5647 5644 5641 5637 5633 5630 5627 5625 5623 5620 5619 5618 5616 5615 5613 5613 5611 5610 5609 5608 5608 5608 5608 5607 5606 5606 5604 5602 5600 5599 5599 5599 5598 5597 5596 5595 5594 5592 5589 5585 5582 5581
5642 5640 5637 5635 5631 5627 5624 5622 5619 5617 5614 5613 5611 5610 5609 5607 5606 5605 5603 5601 5600 5601 5601 5600 5600 5599 5598 5597 5595 5593 5592 5592 5592 5591 5589 5589 5588 5587 5586 5584 5580 5576 5574
5636 5633 5630 5627 5624 5621 5618 5615 5613 5610 5607 5605 5604 5603 5602 5601 5599 5598 5596 5594 5593 5593 5592 5592 5592 5592 5591 5590 5589 5587 5587 5586 5585 5584 5582 5581 5580 5579 5578 5577 5575 5573 5570
5627 5624 5621 5618 5616 5614 5609 5606 5604 5601 5599 5597 5595 5594 5594 5593 5591 5590 5588 5587 5586 5584 5584 5584 5584 5584 5583 5582 5581 5581 5580 5579 5577 5575 5574 5573 5573 5572 5571 5570 5569 5567 5567
5616 5613 5611 5608 5606 5604 5601 5598 5595 5592 5589 5587 5586 5585 5583 5583 5583 5582 5580 5579 5577 5576 5576 5577 5577 5576 5575 5574 5574 5573 5572 5570 5568 5567 5566 5566 5566 5565 5564 5563 5561 5560 5559
5606 5603 5600 5598 5595 5593 5591 5589 5585 5583 5580 5579 5577 5575 5574 5573 5572 5571 5570 5568 5567 5566 5566 5567 5567 5567 5566 5566 5565 5564 5563 5562 5561 5559 5559 5559 5558 5557 5555 5554 5552 5550 5549
5594 5592 5589 5586 5583 5581 5579 5577 5576 5574 5572 5570 5568 5567 5565 5563 5563 5563 5560 5559 5559 5558 5558 5558 5557 5557 5556 5556 5556 5556 5554 5553 5552 5552 5551 5550 5549 5548 5547 5546 5543 5541 5539
5583 5580 5577 5575 5572 5569 5567 5565 5565 5565 5564 5563 5562 5559 5558 5557 5556 5555 5554 5553 5552 5551 5549 5548 5548 5548 5547 5547 5546 5546 5545 5544 5544 5543 5542 5541 5540 5539 5538 5536 5535 5532 5531
5573 5570 5567 5565 5562 5560 5559 5556 5554 5553 5554 5553 5553 5551 5549 5548 5547 5546 5545 5544 5543 5541 5539 5539 5539 5539 5539 5538 5537 5536 5535 5534 5534 5533 5532 5531 5531 5530 5528 5526 5525 5523 5522
5564 5561 5558 5555 5553 5551 5550 5548 5546 5544 5543 5542 5542 5541 5540 5538 5537 5536 5535 5533 5532 5532 5531 5531 5531 5531 5529 5529 5528 5526 5526 5525 5524 5523 5523 5522 5521 5520 5519 5517 5516 5514 5513
5554 5552 5549 5547 5545 5543 5541 5539 5537 5536 5535 5534 5532 5531 5530 5528 5527 5526 5525 5522 5523 5523 5523 5523 5523 5522 5521 5520 5519 5517 5516 5515 5514 5514 5513 5512 5512 5510 5509 5508 5507 5506 5504
5544 5543 5540 5537 5535 5533 5530 5529 5527 5526 5524 5523 5522 5520 5519 5517 5515 5515 5514 5514 5514 5514 5514 5514 5513 5513 5511 5510 5508 5507 5506 5505 5504 5503 5503 5502 5501 5500 5500 5499 5497 5496 5494
5534 5532 5530 5527 5524 5522 5520 5518 5516 5515 5514 5513 5512 5511 5510 5507 5506 5506 5506 5506 5505 5505 5504 5504 5503 5502 5501 5499 5498 5497 5496 5495 5494 5493 5493 5492 5491 5490 5490 5489 5488 5487 5485
5524 5521 5518 5516 5514 5513 5511 5509 5507 5506 5505 5503 5502 5501 5500 5498 5497 5497 5497 5497 5497 5496 5495 5494 5493 5492 5491 5490 5488 5486 5485 5485 5484 5483 5482 5482 5481 5481 5480 5479 5478 5477 5475
5514 5512 5509 5507 5505 5503 5501 5499 5497 5496 5495 5494 5492 5491 5489 5488 5487 5488 5488 5487 5487 5486 5485 5484 5483 5482 5481 5480 5478 5477 5476 5475 5474 5473 5472 5471 5471 5470 5469 5469 5468 5467 5466
5505 5503 5500 5498 5496 5494 5491 5489 5488 5486 5485 5483 5482 5481 5480 5478 5478 5478 5477 5477 5477 5476 5475 5474 5473 5472 5471 5469 5468 5467 5466 5464 5463 5462 5461 5460 5460 5459 5459 5458 5458 5457 5456
5496 5494 5492 5489 5487 5485 5483 5481 5479 5477 5476 5474 5473 5471 5470 5469 5468 5467 5467 5466 5466 5465 5465 5464 5463 5461 5461 5459 5458 5457 5455 5454 5453 5452 5451 5450 5449 5449 5448 5448 5447 5447 5446
5487 5484 5482 5480 5478 5475 5473 5472 5470 5468 5466 5465 5463 5462 5460 5459 5457 5456 5455 5455 5455 5455 5454 5453 5453 5452 5451 5450 5448 5447 5445 5444 5442 5442 5441 5440 5439 5439 5438 5438 5437 5437 5436